Find Starlink 37200

NORAD ID: 68339 Int'l Des: 2026-059 Owner: SPXS Country: US Constellation: starlink operational
LEOCIRCULAR

現在のビュー

3D地球を読み込み中...

About Starlink 37200

Starlink 37200 (NORAD 68339) is a starlink constellation satellite (v2 mini) launched Mar 22, 2026 by SPXS of US. It operates in LEO, CIRCULAR orbit with a mass of 575.00 kg.

Starlink 37200について

説明を読み込み中...

次回通過

Passes for default location (London). Set your location on the main map for personalized predictions.

高度履歴

Loading altitude history...

軌道要素

1 68339U 26059U 26171.44642617 .00015593 00000-0 53857-3 0 9996
2 68339 53.1571 230.5728 0000969 64.8037 295.3064 15.30134754 13918
Epoch: Jun 20, 2026 • Age: 31 hours

現在のステータス

高度 484.8 km
速度 7.62 km/s
衛星直下点 -29.54°S, 102.02°W
打ち上げ日 Mar 22, 2026
運用期間 0.2 years
タイプ internet

技術仕様

分類 Payload
質量 575.00 kg
乾燥質量 530.00 kg
総質量 575.00 kg
長さ 0.30 m
直径 4.10 m
スパン 29.00 m
形状 Box + pan
製造者 SPXS
バスタイプ Starlink V2MO
フェーズステータス In Orbit
所有者/国 SPXS/US

Most Searched